Terug naar catalogus

COSMOS 2054 DEB

ActiefGEO
NORAD 21648·DEBRIS·🇷🇺 Russia

Gelanceerd Dec 27, 1989 vanaf Baikonur Cosmodrome

Loading…

TLE

VersSource: Space-Track

Epoch: Sep 14, 2026, 12:50 UTC

1 21648U 89101G   26257.53493071 -.00000205  00000-0  00000-0 0  9992
2 21648  13.3327 337.2982 0026715 316.1724  49.5909  0.97852125116644

Volg COSMOS 2054 DEB in realtime met AllMySat

Download on the App Store